Time,TemperatureF,DewpointF,PressureIn,WindDirection,WindDirectionDegrees,WindSpeedMPH,WindSpeedGustMPH,Humidity,HourlyPrecipIn,Conditions,Clouds,dailyrainin,SoftwareType,DateUTC
2013-08-04 00:00:00,65.2,62.2,29.51,SSE,158,0.0,0.4,90,0.00,,,0.00,WUHU216HW,2013-08-04 04:00:00,
2013-08-04 00:01:00,65.2,62.2,29.51,SSE,158,0.4,0.4,90,0.00,,,0.00,WUHU216HW,2013-08-04 04:01:00,
2013-08-04 00:02:00,65.2,62.2,29.51,SSE,158,0.0,0.4,90,0.00,,,0.00,WUHU216HW,2013-08-04 04:02:00,
2013-08-04 00:06:00,65.0,62.0,29.51,SSE,158,0.0,0.4,90,0.00,,,0.00,WUHU216HW,2013-08-04 04:06:00,
2013-08-04 00:12:00,65.0,62.0,29.51,SSE,158,0.0,0.0,90,0.00,,,0.00,WUHU216HW,2013-08-04 04:12:00,
2013-08-04 00:17:00,64.8,61.9,29.51,SSE,158,0.0,0.0,90,0.00,,,0.00,WUHU216HW,2013-08-04 04:17:00,
2013-08-04 00:22:00,64.8,61.9,29.51,SSE,158,0.0,0.0,90,0.00,,,0.00,WUHU216HW,2013-08-04 04:22:00,
2013-08-04 00:27:00,64.6,61.8,29.51,SW,225,0.7,1.1,90,0.00,,,0.00,WUHU216HW,2013-08-04 04:27:00,
2013-08-04 00:32:00,64.4,61.6,29.51,WSW,248,0.2,1.3,90,0.00,,,0.00,WUHU216HW,2013-08-04 04:32:00,
2013-08-04 00:37:00,64.4,61.6,29.52,WSW,248,0.4,1.3,90,0.00,,,0.00,WUHU216HW,2013-08-04 04:37:00,
2013-08-04 00:42:00,64.3,61.4,29.51,WSW,248,0.0,1.1,90,0.00,,,0.00,WUHU216HW,2013-08-04 04:42:00,
2013-08-04 00:47:00,64.3,61.4,29.51,SSE,158,0.4,1.3,90,0.00,,,0.00,WUHU216HW,2013-08-04 04:47:00,
2013-08-04 00:52:00,63.9,61.0,29.52,SSE,158,0.4,1.3,90,0.00,,,0.00,WUHU216HW,2013-08-04 04:52:00,
2013-08-04 00:57:00,63.7,60.8,29.51,SSE,158,0.0,1.1,90,0.00,,,0.00,WUHU216HW,2013-08-04 04:57:00,
2013-08-04 01:02:00,63.5,60.7,29.51,SSE,158,0.4,0.9,90,0.00,,,0.00,WUHU216HW,2013-08-04 05:02:00,
2013-08-04 01:07:00,63.4,60.5,29.51,SSE,158,0.0,0.9,90,0.00,,,0.00,WUHU216HW,2013-08-04 05:07:00,
2013-08-04 01:12:00,63.4,60.5,29.51,SSE,158,0.2,0.7,90,0.00,,,0.00,WUHU216HW,2013-08-04 05:12:00,
2013-08-04 01:17:00,63.4,60.5,29.51,SSE,158,0.0,0.7,90,0.00,,,0.00,WUHU216HW,2013-08-04 05:17:00,
2013-08-04 01:22:00,63.4,60.5,29.51,SSE,158,0.0,0.2,90,0.00,,,0.00,WUHU216HW,2013-08-04 05:22:00,
2013-08-04 01:27:00,63.2,60.3,29.51,SW,225,0.4,1.3,90,0.00,,,0.00,WUHU216HW,2013-08-04 05:27:00,
2013-08-04 01:32:00,63.2,60.3,29.51,SW,225,0.0,1.3,90,0.00,,,0.00,WUHU216HW,2013-08-04 05:32:00,
2013-08-04 01:37:00,63.2,60.3,29.51,SW,225,0.0,0.4,90,0.00,,,0.00,WUHU216HW,2013-08-04 05:37:00,
2013-08-04 01:42:00,63.0,60.1,29.51,SW,225,0.4,0.4,90,0.00,,,0.00,WUHU216HW,2013-08-04 05:42:00,
2013-08-04 01:47:00,63.0,60.1,29.51,West,270,1.1,1.8,90,0.00,,,0.00,WUHU216HW,2013-08-04 05:47:00,
2013-08-04 01:52:00,63.0,60.1,29.51,West,270,0.2,1.8,90,0.00,,,0.00,WUHU216HW,2013-08-04 05:52:00,
2013-08-04 01:57:00,63.0,60.1,29.51,West,270,0.0,1.3,90,0.00,,,0.00,WUHU216HW,2013-08-04 05:57:00,
2013-08-04 02:02:00,63.0,60.1,29.51,West,270,0.0,0.4,90,0.00,,,0.00,WUHU216HW,2013-08-04 06:02:00,
2013-08-04 02:07:00,63.2,60.3,29.51,West,270,0.0,0.4,90,0.00,,,0.00,WUHU216HW,2013-08-04 06:07:00,
2013-08-04 02:12:00,63.2,60.3,29.51,West,270,0.0,0.4,90,0.00,,,0.00,WUHU216HW,2013-08-04 06:12:00,
2013-08-04 02:17:00,63.2,60.3,29.51,West,270,0.9,0.9,90,0.00,,,0.00,WUHU216HW,2013-08-04 06:17:00,
2013-08-04 02:22:00,62.8,59.9,29.51,SE,135,1.1,1.3,90,0.00,,,0.00,WUHU216HW,2013-08-04 06:22:00,
2013-08-04 02:27:00,62.6,59.8,29.51,SE,135,0.7,1.6,90,0.00,,,0.00,WUHU216HW,2013-08-04 06:27:00,
2013-08-04 02:32:00,62.5,59.6,29.51,SE,135,1.3,1.6,90,0.00,,,0.00,WUHU216HW,2013-08-04 06:32:00,
2013-08-04 02:37:00,62.5,59.9,29.51,SSE,158,0.4,1.8,91,0.00,,,0.00,WUHU216HW,2013-08-04 06:37:00,
2013-08-04 02:42:00,62.5,59.9,29.51,SSE,158,0.0,1.8,91,0.00,,,0.00,WUHU216HW,2013-08-04 06:42:00,
2013-08-04 02:47:00,62.5,59.9,29.51,SSE,158,0.0,0.4,91,0.00,,,0.00,WUHU216HW,2013-08-04 06:47:00,
2013-08-04 02:52:00,62.6,60.0,29.51,SSE,158,0.0,0.2,91,0.00,,,0.00,WUHU216HW,2013-08-04 06:52:00,
2013-08-04 02:57:00,62.6,60.0,29.51,SSE,158,0.0,0.0,91,0.00,,,0.00,WUHU216HW,2013-08-04 06:57:00,
2013-08-04 03:02:00,62.6,60.0,29.50,SSE,158,0.0,0.4,91,0.00,,,0.00,WUHU216HW,2013-08-04 07:02:00,
2013-08-04 03:07:00,62.6,60.0,29.51,SSE,158,0.0,0.4,91,0.00,,,0.00,WUHU216HW,2013-08-04 07:07:00,
2013-08-04 03:12:00,62.6,60.0,29.51,SSE,158,0.0,0.0,91,0.00,,,0.00,WUHU216HW,2013-08-04 07:12:00,
2013-08-04 03:17:00,62.6,60.0,29.51,SSE,158,0.0,0.0,91,0.00,,,0.00,WUHU216HW,2013-08-04 07:17:00,
2013-08-04 03:22:00,62.5,59.9,29.51,SSE,158,0.0,0.0,91,0.00,,,0.00,WUHU216HW,2013-08-04 07:22:00,
2013-08-04 03:27:00,62.5,59.6,29.51,SSE,158,0.0,0.0,90,0.00,,,0.00,WUHU216HW,2013-08-04 07:27:00,
2013-08-04 03:32:00,62.5,59.6,29.51,SSE,158,0.0,0.4,90,0.00,,,0.00,WUHU216HW,2013-08-04 07:32:00,
2013-08-04 03:37:00,62.3,59.4,29.51,SSE,158,0.4,0.4,90,0.00,,,0.00,WUHU216HW,2013-08-04 07:37:00,
2013-08-04 03:42:00,62.3,59.4,29.51,SSE,158,0.0,0.4,90,0.00,,,0.00,WUHU216HW,2013-08-04 07:42:00,
2013-08-04 03:47:00,62.3,59.4,29.51,SSE,158,0.0,0.4,90,0.00,,,0.00,WUHU216HW,2013-08-04 07:47:00,
2013-08-04 03:52:00,62.3,59.4,29.51,SSE,158,0.0,0.0,90,0.00,,,0.00,WUHU216HW,2013-08-04 07:52:00,
2013-08-04 03:57:00,61.9,59.0,29.51,SSE,158,0.0,0.9,90,0.00,,,0.00,WUHU216HW,2013-08-04 07:57:00,
2013-08-04 04:02:00,61.7,58.9,29.51,SSE,158,0.0,0.9,90,0.00,,,0.00,WUHU216HW,2013-08-04 08:02:00,
2013-08-04 04:07:00,61.7,58.9,29.51,SSE,158,0.0,0.4,90,0.00,,,0.00,WUHU216HW,2013-08-04 08:07:00,
2013-08-04 04:12:00,61.7,59.1,29.51,SSE,158,0.0,0.4,91,0.00,,,0.00,WUHU216HW,2013-08-04 08:12:00,
2013-08-04 04:17:00,61.7,59.1,29.51,SSE,158,0.0,0.0,91,0.00,,,0.00,WUHU216HW,2013-08-04 08:17:00,
2013-08-04 04:22:00,61.7,59.1,29.51,SSE,158,0.0,0.2,91,0.00,,,0.00,WUHU216HW,2013-08-04 08:22:00,
2013-08-04 04:27:00,61.7,59.1,29.51,SSE,158,0.0,0.2,91,0.00,,,0.00,WUHU216HW,2013-08-04 08:27:00,
2013-08-04 04:32:00,61.6,59.0,29.51,SSE,158,0.0,0.0,91,0.00,,,0.00,WUHU216HW,2013-08-04 08:32:00,
2013-08-04 04:37:00,61.6,59.0,29.51,SSE,158,0.0,0.4,91,0.00,,,0.00,WUHU216HW,2013-08-04 08:37:00,
2013-08-04 04:42:00,61.6,59.0,29.51,SSE,158,0.4,0.7,91,0.00,,,0.00,WUHU216HW,2013-08-04 08:42:00,
2013-08-04 04:47:00,61.4,58.5,29.51,SSE,158,0.0,0.7,90,0.00,,,0.00,WUHU216HW,2013-08-04 08:47:00,
2013-08-04 04:52:00,61.4,58.5,29.52,SSE,158,0.0,0.4,90,0.00,,,0.00,WUHU216HW,2013-08-04 08:52:00,
2013-08-04 04:57:00,61.2,58.3,29.52,SSE,158,0.0,0.2,90,0.00,,,0.00,WUHU216HW,2013-08-04 08:57:00,
2013-08-04 05:02:00,61.2,58.6,29.52,SSE,158,0.0,0.0,91,0.00,,,0.00,WUHU216HW,2013-08-04 09:02:00,
2013-08-04 05:07:00,61.2,58.6,29.52,SSE,158,0.0,0.0,91,0.00,,,0.00,WUHU216HW,2013-08-04 09:07:00,
2013-08-04 05:12:00,61.0,58.4,29.52,SSE,158,0.0,0.0,91,0.00,,,0.00,WUHU216HW,2013-08-04 09:12:00,
2013-08-04 05:17:00,61.2,58.6,29.52,SSE,158,0.4,0.4,91,0.00,,,0.00,WUHU216HW,2013-08-04 09:17:00,
2013-08-04 05:22:00,61.2,58.6,29.52,SSE,158,0.2,0.9,91,0.00,,,0.00,WUHU216HW,2013-08-04 09:22:00,
2013-08-04 05:27:00,61.0,58.4,29.52,SSE,158,0.0,0.9,91,0.00,,,0.00,WUHU216HW,2013-08-04 09:27:00,
2013-08-04 05:32:00,61.0,58.4,29.52,SSE,158,0.0,0.9,91,0.00,,,0.00,WUHU216HW,2013-08-04 09:32:00,
2013-08-04 05:37:00,61.0,58.4,29.52,SSE,158,0.0,0.0,91,0.00,,,0.00,WUHU216HW,2013-08-04 09:37:00,
2013-08-04 05:42:00,60.8,58.2,29.52,SSE,158,0.0,0.0,91,0.00,,,0.00,WUHU216HW,2013-08-04 09:42:00,
2013-08-04 05:47:00,60.8,58.2,29.52,SSE,158,0.0,0.0,91,0.00,,,0.00,WUHU216HW,2013-08-04 09:47:00,
2013-08-04 05:52:00,60.8,58.2,29.53,WSW,248,0.0,1.1,91,0.00,,,0.00,WUHU216HW,2013-08-04 09:52:00,
2013-08-04 05:57:00,60.8,58.2,29.53,WSW,248,0.0,1.1,91,0.00,,,0.00,WUHU216HW,2013-08-04 09:57:00,
2013-08-04 06:02:00,60.8,58.2,29.53,WSW,248,0.2,0.7,91,0.00,,,0.00,WUHU216HW,2013-08-04 10:02:00,
2013-08-04 06:07:00,60.7,58.1,29.53,WSW,248,0.4,0.7,91,0.00,,,0.00,WUHU216HW,2013-08-04 10:07:00,
2013-08-04 06:12:00,60.7,58.1,29.53,WSW,248,0.0,0.7,91,0.00,,,0.00,WUHU216HW,2013-08-04 10:12:00,
2013-08-04 06:17:00,60.5,57.9,29.54,WSW,248,0.0,0.7,91,0.00,,,0.00,WUHU216HW,2013-08-04 10:17:00,
2013-08-04 06:22:00,60.5,57.9,29.53,WSW,248,0.0,0.4,91,0.00,,,0.00,WUHU216HW,2013-08-04 10:22:00,
2013-08-04 06:27:00,60.3,57.7,29.53,WSW,248,0.0,0.4,91,0.00,,,0.00,WUHU216HW,2013-08-04 10:27:00,
2013-08-04 06:32:00,60.1,57.5,29.54,WSW,248,0.0,0.0,91,0.00,,,0.00,WUHU216HW,2013-08-04 10:32:00,
2013-08-04 06:37:00,60.1,57.5,29.54,WSW,248,0.0,0.0,91,0.00,,,0.00,WUHU216HW,2013-08-04 10:37:00,
2013-08-04 06:42:00,60.1,57.5,29.54,WSW,248,0.0,0.0,91,0.00,,,0.00,WUHU216HW,2013-08-04 10:42:00,
2013-08-04 06:47:00,60.1,57.5,29.54,WSW,248,0.0,0.0,91,0.00,,,0.00,WUHU216HW,2013-08-04 10:47:00,
2013-08-04 06:52:00,60.1,57.5,29.54,WSW,248,0.0,0.0,91,0.00,,,0.00,WUHU216HW,2013-08-04 10:52:00,
2013-08-04 06:57:00,60.1,57.5,29.54,WSW,248,0.0,0.0,91,0.00,,,0.00,WUHU216HW,2013-08-04 10:57:00,
2013-08-04 07:02:00,60.1,57.5,29.54,WSW,248,0.0,0.0,91,0.00,,,0.00,WUHU216HW,2013-08-04 11:02:00,
2013-08-04 07:07:00,60.1,57.5,29.54,WSW,248,0.0,0.0,91,0.00,,,0.00,WUHU216HW,2013-08-04 11:07:00,
2013-08-04 07:12:00,60.1,57.5,29.54,WSW,248,0.0,0.0,91,0.00,,,0.00,WUHU216HW,2013-08-04 11:12:00,
2013-08-04 07:17:00,60.3,57.7,29.54,WSW,248,0.2,0.2,91,0.00,,,0.00,WUHU216HW,2013-08-04 11:17:00,
2013-08-04 07:22:00,60.5,57.9,29.54,WSW,248,0.0,0.4,91,0.00,,,0.00,WUHU216HW,2013-08-04 11:22:00,
2013-08-04 07:27:00,60.5,57.9,29.54,WSW,248,0.4,0.4,91,0.00,,,0.00,WUHU216HW,2013-08-04 11:27:00,
2013-08-04 07:32:00,60.5,57.9,29.54,WSW,248,0.0,0.7,91,0.00,,,0.00,WUHU216HW,2013-08-04 11:32:00,
2013-08-04 07:37:00,60.7,58.1,29.55,WSW,248,0.0,0.7,91,0.00,,,0.00,WUHU216HW,2013-08-04 11:37:00,
2013-08-04 07:42:00,60.8,58.2,29.55,WSW,248,0.0,0.4,91,0.00,,,0.00,WUHU216HW,2013-08-04 11:42:00,
2013-08-04 07:47:00,61.0,58.4,29.55,WSW,248,0.0,0.4,91,0.00,,,0.00,WUHU216HW,2013-08-04 11:47:00,
2013-08-04 07:52:00,61.2,58.6,29.55,WSW,248,0.0,0.4,91,0.00,,,0.00,WUHU216HW,2013-08-04 11:52:00,
2013-08-04 07:57:00,61.4,58.8,29.55,WSW,248,0.4,0.7,91,0.00,,,0.00,WUHU216HW,2013-08-04 11:57:00,
2013-08-04 08:02:00,61.6,59.2,29.55,WSW,248,0.0,0.7,92,0.00,,,0.00,WUHU216HW,2013-08-04 12:02:00,
2013-08-04 08:07:00,61.9,59.6,29.55,WSW,248,0.0,0.4,92,0.00,,,0.00,WUHU216HW,2013-08-04 12:07:00,
2013-08-04 08:12:00,62.1,59.8,29.55,WNW,293,1.8,1.8,92,0.00,,,0.00,WUHU216HW,2013-08-04 12:12:00,
2013-08-04 08:17:00,62.3,59.9,29.55,WNW,293,0.0,1.8,92,0.00,,,0.00,WUHU216HW,2013-08-04 12:17:00,
2013-08-04 08:22:00,62.6,60.3,29.55,WNW,293,1.6,1.6,92,0.00,,,0.00,WUHU216HW,2013-08-04 12:22:00,
2013-08-04 08:27:00,62.8,60.2,29.55,WNW,293,1.3,1.8,91,0.00,,,0.00,WUHU216HW,2013-08-04 12:27:00,
2013-08-04 08:32:00,63.0,60.4,29.55,West,270,0.2,1.8,91,0.00,,,0.00,WUHU216HW,2013-08-04 12:32:00,
2013-08-04 08:37:00,63.4,60.8,29.55,NNW,338,0.0,2.5,91,0.00,,,0.00,WUHU216HW,2013-08-04 12:37:00,
2013-08-04 08:42:00,63.7,61.1,29.55,WNW,293,1.6,2.5,91,0.00,,,0.00,WUHU216HW,2013-08-04 12:42:00,
2013-08-04 08:47:00,63.7,61.1,29.56,West,270,0.4,1.8,91,0.00,,,0.00,WUHU216HW,2013-08-04 12:47:00,
2013-08-04 08:52:00,64.1,61.2,29.56,NW,315,2.5,3.4,90,0.00,,,0.00,WUHU216HW,2013-08-04 12:52:00,
2013-08-04 08:57:00,64.4,61.2,29.56,WNW,293,0.4,3.4,89,0.00,,,0.00,WUHU216HW,2013-08-04 12:57:00,
2013-08-04 09:02:00,64.8,61.2,29.56,WNW,293,0.9,3.4,88,0.00,,,0.00,WUHU216HW,2013-08-04 13:02:00,
2013-08-04 09:07:00,65.0,61.4,29.56,WNW,293,2.5,2.5,88,0.00,,,0.00,WUHU216HW,2013-08-04 13:07:00,
2013-08-04 09:12:00,65.2,61.8,29.56,WNW,293,1.1,2.5,89,0.00,,,0.00,WUHU216HW,2013-08-04 13:12:00,
2013-08-04 09:17:00,65.5,61.8,29.56,SSW,203,1.1,1.1,88,0.00,,,0.00,WUHU216HW,2013-08-04 13:17:00,
2013-08-04 09:22:00,65.7,62.0,29.56,North,0,1.3,1.8,88,0.00,,,0.00,WUHU216HW,2013-08-04 13:22:00,
2013-08-04 09:27:00,65.9,61.6,29.55,WNW,293,2.5,2.5,86,0.00,,,0.00,WUHU216HW,2013-08-04 13:27:00,
2013-08-04 09:32:00,66.4,62.1,29.55,SW,225,1.6,2.5,86,0.00,,,0.00,WUHU216HW,2013-08-04 13:32:00,
2013-08-04 09:37:00,66.8,61.7,29.55,WNW,293,3.1,3.1,84,0.00,,,0.00,WUHU216HW,2013-08-04 13:37:00,
2013-08-04 09:42:00,67.3,62.3,29.55,West,270,2.5,3.4,84,0.00,,,0.00,WUHU216HW,2013-08-04 13:42:00,
2013-08-04 09:47:00,67.7,62.4,29.56,East,90,0.2,3.4,83,0.00,,,0.00,WUHU216HW,2013-08-04 13:47:00,
2013-08-04 09:52:00,68.0,62.7,29.56,West,270,4.0,4.0,83,0.00,,,0.00,WUHU216HW,2013-08-04 13:52:00,
2013-08-04 09:57:00,68.4,62.4,29.56,WNW,293,1.1,4.0,81,0.00,,,0.00,WUHU216HW,2013-08-04 13:57:00,
2013-08-04 10:02:00,68.8,63.1,29.56,West,270,2.5,2.5,82,0.00,,,0.00,WUHU216HW,2013-08-04 14:02:00,
2013-08-04 10:07:00,68.9,62.6,29.56,WNW,293,1.3,3.4,80,0.00,,,0.00,WUHU216HW,2013-08-04 14:07:00,
2013-08-04 10:12:00,69.3,62.9,29.56,West,270,0.9,3.4,80,0.00,,,0.00,WUHU216HW,2013-08-04 14:12:00,
2013-08-04 10:17:00,69.5,62.6,29.56,West,270,2.2,2.2,79,0.00,,,0.00,WUHU216HW,2013-08-04 14:17:00,
2013-08-04 10:22:00,69.7,62.8,29.56,West,270,1.8,4.0,79,0.00,,,0.00,WUHU216HW,2013-08-04 14:22:00,
2013-08-04 10:27:00,69.8,62.2,29.56,WNW,293,3.1,4.0,77,0.00,,,0.00,WUHU216HW,2013-08-04 14:27:00,
2013-08-04 10:32:00,70.2,62.6,29.57,WSW,248,2.5,3.1,77,0.00,,,0.00,WUHU216HW,2013-08-04 14:32:00,
2013-08-04 10:37:00,70.4,62.4,29.57,WNW,293,2.9,3.1,76,0.00,,,0.00,WUHU216HW,2013-08-04 14:37:00,
2013-08-04 10:42:00,70.6,61.8,29.56,West,270,1.1,4.0,74,0.00,,,0.00,WUHU216HW,2013-08-04 14:42:00,
2013-08-04 10:47:00,71.1,62.7,29.56,ENE,68,1.6,4.0,75,0.00,,,0.00,WUHU216HW,2013-08-04 14:47:00,
2013-08-04 10:52:00,71.5,63.1,29.56,North,0,2.7,2.7,75,0.00,,,0.00,WUHU216HW,2013-08-04 14:52:00,
2013-08-04 10:57:00,71.6,61.7,29.56,ENE,68,2.0,2.7,71,0.00,,,0.00,WUHU216HW,2013-08-04 14:57:00,
2013-08-04 11:02:00,71.5,61.9,29.57,West,270,1.6,2.0,72,0.00,,,0.00,WUHU216HW,2013-08-04 15:02:00,
2013-08-04 11:07:00,71.6,62.6,29.57,ENE,68,3.6,3.6,73,0.00,,,0.00,WUHU216HW,2013-08-04 15:07:00,
2013-08-04 11:12:00,72.2,61.0,29.57,WSW,248,1.6,3.6,68,0.00,,,0.00,WUHU216HW,2013-08-04 15:12:00,
2013-08-04 11:17:00,72.7,60.7,29.57,NNE,23,2.7,5.1,66,0.00,,,0.00,WUHU216HW,2013-08-04 15:17:00,
2013-08-04 11:22:00,73.1,62.8,29.57,WNW,293,4.3,5.1,70,0.00,,,0.00,WUHU216HW,2013-08-04 15:22:00,
2013-08-04 11:27:00,73.4,61.8,29.57,East,90,2.0,5.1,67,0.00,,,0.00,WUHU216HW,2013-08-04 15:27:00,
2013-08-04 11:32:00,73.1,62.4,29.57,NW,315,2.0,5.1,69,0.00,,,0.00,WUHU216HW,2013-08-04 15:32:00,
2013-08-04 11:37:00,72.7,62.0,29.57,WNW,293,1.1,2.0,69,0.00,,,0.00,WUHU216HW,2013-08-04 15:37:00,
2013-08-04 11:42:00,72.7,61.6,29.57,West,270,1.8,4.3,68,0.00,,,0.00,WUHU216HW,2013-08-04 15:42:00,
2013-08-04 11:47:00,73.1,63.2,29.57,NW,315,2.5,4.5,71,0.00,,,0.00,WUHU216HW,2013-08-04 15:47:00,
2013-08-04 11:52:00,73.4,62.7,29.57,NW,315,0.0,4.5,69,0.00,,,0.00,WUHU216HW,2013-08-04 15:52:00,
2013-08-04 11:57:00,73.3,63.4,29.57,NW,315,0.2,3.4,71,0.00,,,0.00,WUHU216HW,2013-08-04 15:57:00,
2013-08-04 12:02:00,73.1,63.2,29.57,WNW,293,3.4,3.4,71,0.00,,,0.00,WUHU216HW,2013-08-04 16:02:00,
2013-08-04 12:07:00,72.7,62.0,29.56,WNW,293,3.6,6.3,69,0.00,,,0.00,WUHU216HW,2013-08-04 16:07:00,
2013-08-04 12:12:00,72.5,62.3,29.57,WNW,293,3.6,6.3,70,0.00,,,0.00,WUHU216HW,2013-08-04 16:12:00,
2013-08-04 12:17:00,72.5,61.8,29.57,West,270,4.5,7.2,69,0.00,,,0.00,WUHU216HW,2013-08-04 16:17:00,
2013-08-04 12:22:00,72.7,60.7,29.56,NNW,338,2.9,7.2,66,0.00,,,0.00,WUHU216HW,2013-08-04 16:22:00,
2013-08-04 12:27:00,72.9,60.8,29.57,WNW,293,0.0,4.7,66,0.00,,,0.00,WUHU216HW,2013-08-04 16:27:00,
2013-08-04 12:32:00,73.1,61.0,29.56,West,270,2.9,4.7,66,0.00,,,0.00,WUHU216HW,2013-08-04 16:32:00,
2013-08-04 12:37:00,73.4,62.3,29.56,WNW,293,4.5,7.4,68,0.00,,,0.00,WUHU216HW,2013-08-04 16:37:00,
2013-08-04 12:42:00,75.1,62.9,29.56,West,270,4.0,7.4,66,0.00,,,0.00,WUHU216HW,2013-08-04 16:42:00,
2013-08-04 12:47:00,76.3,63.6,29.56,WNW,293,6.0,7.8,65,0.00,,,0.00,WUHU216HW,2013-08-04 16:47:00,
2013-08-04 12:52:00,76.9,63.7,29.56,NW,315,3.6,7.8,64,0.00,,,0.00,WUHU216HW,2013-08-04 16:52:00,
2013-08-04 12:58:00,77.4,64.7,29.56,WNW,293,4.3,6.5,65,0.00,,,0.00,WUHU216HW,2013-08-04 16:58:00,
2013-08-04 13:02:00,77.4,63.8,29.56,WNW,293,1.1,5.4,63,0.00,,,0.00,WUHU216HW,2013-08-04 17:02:00,
2013-08-04 13:08:00,76.9,63.3,29.56,WNW,293,5.6,5.6,63,0.00,,,0.00,WUHU216HW,2013-08-04 17:08:00,
2013-08-04 13:13:00,77.0,62.1,29.56,WNW,293,8.9,8.9,60,0.00,,,0.00,WUHU216HW,2013-08-04 17:13:00,
2013-08-04 13:18:00,77.2,62.7,29.56,WNW,293,3.4,8.9,61,0.00,,,0.00,WUHU216HW,2013-08-04 17:18:00,
2013-08-04 13:23:00,77.2,61.7,29.56,NW,315,6.3,6.3,59,0.00,,,0.00,WUHU216HW,2013-08-04 17:23:00,
2013-08-04 13:27:00,77.4,62.5,29.56,West,270,0.4,6.3,60,0.00,,,0.00,WUHU216HW,2013-08-04 17:27:00,
2013-08-04 13:32:00,77.4,61.9,29.56,East,90,0.9,6.3,59,0.00,,,0.00,WUHU216HW,2013-08-04 17:32:00,
2013-08-04 13:38:00,77.6,62.6,29.55,WNW,293,1.6,4.7,60,0.00,,,0.00,WUHU216HW,2013-08-04 17:38:00,
2013-08-04 13:43:00,77.9,61.5,29.55,ESE,113,0.4,5.8,57,0.00,,,0.00,WUHU216HW,2013-08-04 17:43:00,
2013-08-04 13:47:00,77.9,62.5,29.55,NW,315,6.3,6.3,59,0.00,,,0.00,WUHU216HW,2013-08-04 17:47:00,
2013-08-04 13:53:00,78.1,63.2,29.55,NE,45,2.0,7.4,60,0.00,,,0.00,WUHU216HW,2013-08-04 17:53:00,
2013-08-04 13:58:00,77.9,61.5,29.55,NNW,338,0.4,7.4,57,0.00,,,0.00,WUHU216HW,2013-08-04 17:58:00,
2013-08-04 14:02:00,77.6,61.1,29.55,North,0,2.2,5.8,57,0.00,,,0.00,WUHU216HW,2013-08-04 18:02:00,
2013-08-04 14:08:00,77.8,61.8,29.55,West,270,0.4,8.3,58,0.00,,,0.00,WUHU216HW,2013-08-04 18:08:00,
2013-08-04 14:13:00,78.3,62.4,29.55,WNW,293,3.4,8.3,58,0.00,,,0.00,WUHU216HW,2013-08-04 18:13:00,
2013-08-04 14:18:00,78.8,62.8,29.55,SSE,158,1.6,8.5,58,0.00,,,0.00,WUHU216HW,2013-08-04 18:18:00,
2013-08-04 14:23:00,79.0,61.5,29.55,ESE,113,1.1,8.5,55,0.00,,,0.00,WUHU216HW,2013-08-04 18:23:00,
2013-08-04 14:28:00,78.7,60.1,29.55,NNE,23,2.2,3.1,53,0.00,,,0.00,WUHU216HW,2013-08-04 18:28:00,
2013-08-04 14:33:00,78.8,60.8,29.55,ESE,113,3.6,5.6,54,0.00,,,0.00,WUHU216HW,2013-08-04 18:33:00,
2013-08-04 14:37:00,79.4,61.7,29.55,West,270,2.9,9.2,55,0.00,,,0.00,WUHU216HW,2013-08-04 18:37:00,
2013-08-04 14:43:00,80.8,63.1,29.54,WNW,293,4.0,9.2,55,0.00,,,0.00,WUHU216HW,2013-08-04 18:43:00,
2013-08-04 14:48:00,82.1,63.2,29.54,NW,315,4.7,8.3,53,0.00,,,0.00,WUHU216HW,2013-08-04 18:48:00,
2013-08-04 14:53:00,82.1,61.6,29.54,SE,135,2.9,8.3,50,0.00,,,0.00,WUHU216HW,2013-08-04 18:53:00,
2013-08-04 14:58:00,81.5,60.5,29.54,West,270,6.3,6.5,49,0.00,,,0.00,WUHU216HW,2013-08-04 18:58:00,
2013-08-04 15:03:00,82.6,59.7,29.54,WNW,293,4.9,6.3,46,0.00,,,0.00,WUHU216HW,2013-08-04 19:03:00,
2013-08-04 15:07:00,81.9,61.9,29.54,NNW,338,0.4,5.4,51,0.00,,,0.00,WUHU216HW,2013-08-04 19:07:00,
2013-08-04 15:08:00,81.9,61.9,29.54,NNW,338,0.4,5.4,51,0.00,,,0.00,WUHU216HW,2013-08-04 19:08:00,
2013-08-04 15:13:00,81.9,60.9,29.54,NW,315,2.2,8.5,49,0.00,,,0.00,WUHU216HW,2013-08-04 19:13:00,
2013-08-04 15:18:00,82.1,58.5,29.54,NNW,338,0.4,8.5,45,0.00,,,0.00,WUHU216HW,2013-08-04 19:18:00,
2013-08-04 15:23:00,81.4,57.9,29.54,WSW,248,4.9,4.9,45,0.00,,,0.00,WUHU216HW,2013-08-04 19:23:00,
2013-08-04 15:28:00,81.7,58.2,29.54,East,90,3.8,4.9,45,0.00,,,0.00,WUHU216HW,2013-08-04 19:28:00,
2013-08-04 15:33:00,81.7,59.4,29.54,WNW,293,1.8,4.7,47,0.00,,,0.00,WUHU216HW,2013-08-04 19:33:00,
2013-08-04 15:38:00,81.7,57.6,29.54,West,270,2.2,3.8,44,0.00,,,0.00,WUHU216HW,2013-08-04 19:38:00,
2013-08-04 15:43:00,81.7,58.2,29.54,WNW,293,3.4,5.8,45,0.00,,,0.00,WUHU216HW,2013-08-04 19:43:00,
2013-08-04 15:48:00,81.7,57.6,29.54,WSW,248,5.4,6.0,44,0.00,,,0.00,WUHU216HW,2013-08-04 19:48:00,
2013-08-04 15:53:00,81.7,59.4,29.54,NW,315,6.3,6.3,47,0.00,,,0.00,WUHU216HW,2013-08-04 19:53:00,
2013-08-04 15:58:00,81.5,58.7,29.54,WNW,293,2.9,6.3,46,0.00,,,0.00,WUHU216HW,2013-08-04 19:58:00,
2013-08-04 16:03:00,81.4,59.1,29.55,WSW,248,4.0,5.4,47,0.00,,,0.00,WUHU216HW,2013-08-04 20:03:00,
2013-08-04 16:08:00,81.2,59.0,29.54,NNE,23,1.8,5.6,47,0.00,,,0.00,WUHU216HW,2013-08-04 20:08:00,
2013-08-04 16:13:00,81.0,58.1,29.54,WSW,248,1.1,6.7,46,0.00,,,0.00,WUHU216HW,2013-08-04 20:13:00,
2013-08-04 16:18:00,80.6,58.5,29.55,NNW,338,1.6,6.7,47,0.00,,,0.00,WUHU216HW,2013-08-04 20:18:00,
2013-08-04 16:23:00,80.3,57.5,29.55,North,0,0.9,5.8,46,0.00,,,0.00,WUHU216HW,2013-08-04 20:23:00,
2013-08-04 16:28:00,79.9,57.8,29.54,WNW,293,7.8,8.5,47,0.00,,,0.00,WUHU216HW,2013-08-04 20:28:00,
2013-08-04 16:33:00,79.7,57.7,29.54,North,0,0.4,8.5,47,0.00,,,0.00,WUHU216HW,2013-08-04 20:33:00,
2013-08-04 16:38:00,79.6,57.5,29.54,NNW,338,3.8,5.4,47,0.00,,,0.00,WUHU216HW,2013-08-04 20:38:00,
2013-08-04 16:43:00,79.6,57.5,29.54,East,90,5.8,5.8,47,0.00,,,0.00,WUHU216HW,2013-08-04 20:43:00,
2013-08-04 16:47:00,79.2,57.2,29.54,North,0,0.0,6.3,47,0.00,,,0.00,WUHU216HW,2013-08-04 20:47:00,
2013-08-04 16:53:00,78.7,56.7,29.54,NE,45,2.0,6.3,47,0.00,,,0.00,WUHU216HW,2013-08-04 20:53:00,
2013-08-04 16:58:00,78.5,57.2,29.54,NE,45,3.8,3.8,48,0.00,,,0.00,WUHU216HW,2013-08-04 20:58:00,
2013-08-04 17:03:00,78.1,56.8,29.54,SSW,203,0.7,3.8,48,0.00,,,0.00,WUHU216HW,2013-08-04 21:03:00,
2013-08-04 17:08:00,77.9,55.5,29.54,West,270,2.0,3.8,46,0.00,,,0.00,WUHU216HW,2013-08-04 21:08:00,
2013-08-04 17:13:00,78.1,57.4,29.53,NNW,338,1.1,6.0,49,0.00,,,0.00,WUHU216HW,2013-08-04 21:13:00,
2013-08-04 17:18:00,78.1,57.4,29.54,NNE,23,1.8,6.0,49,0.00,,,0.00,WUHU216HW,2013-08-04 21:18:00,
2013-08-04 17:23:00,78.1,56.8,29.54,ENE,68,2.9,3.8,48,0.00,,,0.00,WUHU216HW,2013-08-04 21:23:00,
2013-08-04 17:28:00,78.1,57.4,29.54,ESE,113,1.6,4.7,49,0.00,,,0.00,WUHU216HW,2013-08-04 21:28:00,
2013-08-04 17:32:00,78.1,56.8,29.54,NNE,23,3.8,4.7,48,0.00,,,0.00,WUHU216HW,2013-08-04 21:32:00,
2013-08-04 17:37:00,78.1,57.4,29.54,NNE,23,2.0,3.8,49,0.00,,,0.00,WUHU216HW,2013-08-04 21:37:00,
2013-08-04 17:43:00,78.3,57.0,29.54,NNE,23,1.3,4.5,48,0.00,,,0.00,WUHU216HW,2013-08-04 21:43:00,
2013-08-04 17:48:00,78.8,57.4,29.54,ENE,68,1.6,4.5,48,0.00,,,0.00,WUHU216HW,2013-08-04 21:48:00,
2013-08-04 17:49:00,78.8,57.4,29.54,ENE,68,1.6,4.5,48,0.00,,,0.00,WUHU216HW,2013-08-04 21:49:00,
2013-08-04 17:54:00,78.5,57.2,29.54,ESE,113,0.7,4.7,48,0.00,,,0.00,WUHU216HW,2013-08-04 21:54:00,
2013-08-04 17:59:00,78.1,57.4,29.54,ENE,68,1.8,4.7,49,0.00,,,0.00,WUHU216HW,2013-08-04 21:59:00,
2013-08-04 18:04:00,77.9,57.2,29.54,East,90,2.2,2.2,49,0.00,,,0.00,WUHU216HW,2013-08-04 22:04:00,
2013-08-04 18:08:00,77.8,56.5,29.54,NE,45,1.8,2.5,48,0.00,,,0.00,WUHU216HW,2013-08-04 22:08:00,
2013-08-04 18:14:00,77.8,57.1,29.54,East,90,2.2,2.5,49,0.00,,,0.00,WUHU216HW,2013-08-04 22:14:00,
2013-08-04 18:19:00,78.1,58.1,29.54,NW,315,0.9,2.2,50,0.00,,,0.00,WUHU216HW,2013-08-04 22:19:00,
2013-08-04 18:24:00,78.3,57.6,29.54,SW,225,1.1,2.0,49,0.00,,,0.00,WUHU216HW,2013-08-04 22:24:00,
2013-08-04 18:28:00,77.9,57.2,29.55,NNE,23,0.4,2.9,49,0.00,,,0.00,WUHU216HW,2013-08-04 22:28:00,
2013-08-04 18:34:00,77.8,56.5,29.55,NE,45,0.4,2.9,48,0.00,,,0.00,WUHU216HW,2013-08-04 22:34:00,
2013-08-04 18:38:00,77.4,56.8,29.55,ESE,113,0.9,2.5,49,0.00,,,0.00,WUHU216HW,2013-08-04 22:38:00,
2013-08-04 18:44:00,77.2,57.3,29.55,NNE,23,3.4,3.4,50,0.00,,,0.00,WUHU216HW,2013-08-04 22:44:00,
2013-08-04 18:49:00,77.0,56.4,29.55,East,90,1.8,3.4,49,0.00,,,0.00,WUHU216HW,2013-08-04 22:49:00,
2013-08-04 18:54:00,76.9,56.3,29.55,SSW,203,1.8,1.8,49,0.00,,,0.00,WUHU216HW,2013-08-04 22:54:00,
2013-08-04 18:58:00,76.7,56.7,29.55,NNE,23,0.2,1.8,50,0.00,,,0.00,WUHU216HW,2013-08-04 22:58:00,
2013-08-04 19:03:00,76.3,56.9,29.55,SSE,158,1.1,1.8,51,0.00,,,0.00,WUHU216HW,2013-08-04 23:03:00,
2013-08-04 19:09:00,76.1,56.8,29.56,East,90,0.4,2.0,51,0.00,,,0.00,WUHU216HW,2013-08-04 23:09:00,
2013-08-04 19:13:00,76.0,56.6,29.56,North,0,1.3,2.0,51,0.00,,,0.00,WUHU216HW,2013-08-04 23:13:00,
2013-08-04 19:18:00,75.8,57.4,29.56,East,90,0.4,1.8,53,0.00,,,0.00,WUHU216HW,2013-08-04 23:18:00,
2013-08-04 19:24:00,75.2,57.0,29.55,ESE,113,0.2,1.8,53,0.00,,,0.00,WUHU216HW,2013-08-04 23:24:00,
2013-08-04 19:28:00,75.1,57.2,29.55,East,90,1.3,1.8,54,0.00,,,0.00,WUHU216HW,2013-08-04 23:28:00,
2013-08-04 19:33:00,74.9,57.1,29.55,East,90,0.4,1.3,54,0.00,,,0.00,WUHU216HW,2013-08-04 23:33:00,
2013-08-04 19:39:00,74.7,57.4,29.55,East,90,2.2,2.2,55,0.00,,,0.00,WUHU216HW,2013-08-04 23:39:00,
2013-08-04 19:43:00,74.5,57.8,29.56,East,90,0.0,2.2,56,0.00,,,0.00,WUHU216HW,2013-08-04 23:43:00,
2013-08-04 19:49:00,74.2,57.9,29.56,East,90,0.0,1.8,57,0.00,,,0.00,WUHU216HW,2013-08-04 23:49:00,
2013-08-04 19:54:00,73.8,58.1,29.56,East,90,0.0,0.0,58,0.00,,,0.00,WUHU216HW,2013-08-04 23:54:00,
2013-08-04 19:59:00,73.4,58.1,29.56,East,90,0.0,0.2,59,0.00,,,0.00,WUHU216HW,2013-08-04 23:59:00,
2013-08-04 20:03:00,73.1,58.3,29.56,East,90,0.0,0.2,60,0.00,,,0.00,WUHU216HW,2013-08-05 00:03:00,
2013-08-04 20:09:00,72.5,57.9,29.56,East,90,0.0,0.4,60,0.00,,,0.00,WUHU216HW,2013-08-05 00:09:00,
2013-08-04 20:13:00,72.2,58.4,29.56,East,90,1.6,1.6,62,0.00,,,0.00,WUHU216HW,2013-08-05 00:13:00,
2013-08-04 20:18:00,71.6,58.3,29.56,East,90,1.8,1.8,63,0.00,,,0.00,WUHU216HW,2013-08-05 00:18:00,
2013-08-04 20:24:00,71.1,57.9,29.56,East,90,1.1,1.8,63,0.00,,,0.00,WUHU216HW,2013-08-05 00:24:00,
2013-08-04 20:29:00,70.7,57.5,29.57,East,90,0.0,1.1,63,0.00,,,0.00,WUHU216HW,2013-08-05 00:29:00,
2013-08-04 20:34:00,70.2,57.4,29.56,East,90,0.0,0.2,64,0.00,,,0.00,WUHU216HW,2013-08-05 00:34:00,
2013-08-04 20:39:00,69.7,57.3,29.57,East,90,0.9,0.9,65,0.00,,,0.00,WUHU216HW,2013-08-05 00:39:00,
2013-08-04 20:44:00,69.3,57.0,29.57,East,90,0.0,1.1,65,0.00,,,0.00,WUHU216HW,2013-08-05 00:44:00,
2013-08-04 20:49:00,68.9,57.1,29.57,East,90,0.0,1.1,66,0.00,,,0.00,WUHU216HW,2013-08-05 00:49:00,
2013-08-04 20:54:00,68.6,56.7,29.57,East,90,0.4,0.4,66,0.00,,,0.00,WUHU216HW,2013-08-05 00:54:00,
2013-08-04 20:59:00,68.2,56.4,29.58,East,90,0.0,0.9,66,0.00,,,0.00,WUHU216HW,2013-08-05 00:59:00,
2013-08-04 21:04:00,67.9,56.5,29.58,East,90,0.0,0.9,67,0.00,,,0.00,WUHU216HW,2013-08-05 01:04:00,
2013-08-04 21:09:00,67.7,56.7,29.58,East,90,0.0,0.0,68,0.00,,,0.00,WUHU216HW,2013-08-05 01:09:00,
2013-08-04 21:13:00,67.3,56.0,29.58,East,90,0.0,0.0,67,0.00,,,0.00,WUHU216HW,2013-08-05 01:13:00,
2013-08-04 21:19:00,67.1,55.8,29.58,East,90,0.0,0.0,67,0.00,,,0.00,WUHU216HW,2013-08-05 01:19:00,
2013-08-04 21:24:00,66.8,55.4,29.58,East,90,0.0,0.0,67,0.00,,,0.00,WUHU216HW,2013-08-05 01:24:00,
2013-08-04 21:29:00,66.6,55.7,29.58,East,90,0.0,0.0,68,0.00,,,0.00,WUHU216HW,2013-08-05 01:29:00,
2013-08-04 21:34:00,66.4,55.5,29.59,East,90,0.0,0.0,68,0.00,,,0.00,WUHU216HW,2013-08-05 01:34:00,
2013-08-04 21:38:00,66.2,55.7,29.59,East,90,0.4,0.7,69,0.00,,,0.00,WUHU216HW,2013-08-05 01:38:00,
2013-08-04 21:43:00,65.9,55.5,29.59,West,270,0.7,1.3,69,0.00,,,0.00,WUHU216HW,2013-08-05 01:43:00,
2013-08-04 21:49:00,65.5,55.1,29.59,West,270,0.4,1.3,69,0.00,,,0.00,WUHU216HW,2013-08-05 01:49:00,
2013-08-04 21:54:00,65.3,55.4,29.60,West,270,0.0,1.1,70,0.00,,,0.00,WUHU216HW,2013-08-05 01:54:00,
2013-08-04 21:59:00,65.2,55.5,29.60,West,270,1.1,1.8,71,0.00,,,0.00,WUHU216HW,2013-08-05 01:59:00,
2013-08-04 22:03:00,65.0,55.0,29.60,West,270,0.4,1.8,70,0.00,,,0.00,WUHU216HW,2013-08-05 02:03:00,
2013-08-04 22:09:00,65.0,55.4,29.60,West,270,0.0,1.3,71,0.00,,,0.00,WUHU216HW,2013-08-05 02:09:00,
2013-08-04 22:14:00,64.8,55.3,29.60,West,270,0.0,0.4,71,0.00,,,0.00,WUHU216HW,2013-08-05 02:14:00,
2013-08-04 22:18:00,64.8,55.3,29.60,West,270,0.0,0.0,71,0.00,,,0.00,WUHU216HW,2013-08-05 02:18:00,
2013-08-04 22:24:00,64.4,54.9,29.60,West,270,0.7,0.7,71,0.00,,,0.00,WUHU216HW,2013-08-05 02:24:00,
2013-08-04 22:29:00,64.3,54.7,29.60,West,270,0.4,1.3,71,0.00,,,0.00,WUHU216HW,2013-08-05 02:29:00,
2013-08-04 22:33:00,64.1,54.5,29.60,West,270,0.4,1.3,71,0.00,,,0.00,WUHU216HW,2013-08-05 02:33:00,
2013-08-04 22:39:00,63.9,54.7,29.60,West,270,0.9,1.6,72,0.00,,,0.00,WUHU216HW,2013-08-05 02:39:00,
2013-08-04 22:44:00,63.7,54.5,29.60,West,270,0.9,1.6,72,0.00,,,0.00,WUHU216HW,2013-08-05 02:44:00,
2013-08-04 22:49:00,63.5,54.4,29.60,West,270,1.1,1.3,72,0.00,,,0.00,WUHU216HW,2013-08-05 02:49:00,
2013-08-04 22:53:00,63.5,54.7,29.60,WNW,293,2.2,2.2,73,0.00,,,0.00,WUHU216HW,2013-08-05 02:53:00,
2013-08-04 22:59:00,63.4,54.5,29.60,West,270,2.2,2.9,73,0.00,,,0.00,WUHU216HW,2013-08-05 02:59:00,
2013-08-04 23:03:00,63.4,54.9,29.60,West,270,0.2,2.9,74,0.00,,,0.00,WUHU216HW,2013-08-05 03:03:00,
2013-08-04 23:09:00,63.4,54.9,29.60,West,270,0.0,2.2,74,0.00,,,0.00,WUHU216HW,2013-08-05 03:09:00,
2013-08-04 23:14:00,63.4,54.9,29.60,West,270,0.0,0.4,74,0.00,,,0.00,WUHU216HW,2013-08-05 03:14:00,
2013-08-04 23:18:00,63.2,54.7,29.60,West,270,0.2,0.4,74,0.00,,,0.00,WUHU216HW,2013-08-05 03:18:00,
2013-08-04 23:23:00,63.0,54.5,29.61,West,270,0.4,0.9,74,0.00,,,0.00,WUHU216HW,2013-08-05 03:23:00,
2013-08-04 23:29:00,62.6,53.8,29.60,West,270,1.8,1.8,73,0.00,,,0.00,WUHU216HW,2013-08-05 03:29:00,
2013-08-04 23:34:00,62.5,53.6,29.61,West,270,2.5,2.5,73,0.00,,,0.00,WUHU216HW,2013-08-05 03:34:00,
2013-08-04 23:38:00,62.5,53.6,29.61,WNW,293,1.8,2.5,73,0.00,,,0.00,WUHU216HW,2013-08-05 03:38:00,
2013-08-04 23:43:00,62.5,54.0,29.61,West,270,1.6,2.5,74,0.00,,,0.00,WUHU216HW,2013-08-05 03:43:00,
2013-08-04 23:49:00,62.5,54.0,29.61,WNW,293,1.3,2.7,74,0.00,,,0.00,WUHU216HW,2013-08-05 03:49:00,
2013-08-04 23:53:00,62.5,54.0,29.61,WNW,293,0.4,2.7,74,0.00,,,0.00,WUHU216HW,2013-08-05 03:53:00,
2013-08-04 23:59:00,62.5,54.4,29.61,WNW,293,0.0,1.6,75,0.00,,,0.00,WUHU216HW,2013-08-05 03:59:00,